TOURFACTS.DK  
Stats and Facts from Tour de France.

Tour de France 2019 starts in 320 days
  Riders   Stages   Teams   Summits   Yearly  


 
Search by year

After 2018 - Stage 21:
 15000 starters.
  5165 different riders.
  638 teams.
  2253 stages.
  456 restdays.
  442940.60 km.
  5684 abandonnees.


Top 3
GC
Geraint Thomas83:17:13
Tom Dumoulin83:19:04
Christopher Froome83:19:37
Climb
Julian Alaphilippe170 pt.
Warren Barguil91 pt.
Rafal Majka76 pt.
Sprint
Peter Sagan477 pt.
Alexander Kristoff246 pt.
Arnaud Démare203 pt.
Youth
Pierre-Roger Latou..83:39:26
Egan Bernal83:45:05
Guillaume Martin84:01:31
Facts from Tour de France 2016
  |   Stages.  |   Stage winners.  |   Days in yellow  |   Average speed.  |   Route.  |   Teams.  |   All riders.  |   Rookies.  |  

  |   Withdrawls.  |   GC.  |   Polka  |   Green  |   White  |   Summits. (In tour)  |   Miscellaneous.  |  

Stage 13 on 15 - 07 - 2016
         Owning:    Christopher Froome      Thomas De Gendt      Peter Sagan      Adam Yates  

Pick a stage:  1 2 3 4 5 6 7 8 9 10 11 12 13 14 15 16 17 18 19 20 21
  Bourg-Saint-AndéolLa Caverne du Pont-d´Arc | Dist: 37.00 km.

Average speed for all riders in stage:  39,113 km./hr.
    Place:Name:Team:Time:Km/h:
1
NEDTom DumoulinDEUTeam Giant Alpecin00:50:15  +  00:00:00=44,179 
2
KENChristopher FroomeGBRSky Procycling00:51:18  +  00:01:03=43,275 
3
PORNelson OliveiraESPMovistar Team00:51:46  +  00:01:31=42,885 
44 FRAJérôme CoppelCHEIAM Cycling00:51:50  +  00:01:35=42,830 
55 AUSRohan DennisUSABMC Racing Team00:51:56  +  00:01:41=42,747 
66 NEDBauke MollemaUSATrek - Segafredo00:52:09  +  00:01:54=42,570 
77 WALGeraint ThomasGBRSky Procycling00:52:15  +  00:02:00=42,488 
88 ESPJon Izaguirre InsaustiESPMovistar Team00:52:17  +  00:02:02=42,461 
99 GERTony MartinBELEtixx - Quick Step00:52:20  +  00:02:05=42,420 
1010 ENGStephen CummingsZAFDimension Data00:52:39  +  00:02:24=42,165 
1111 CZEJan BártaDEUBora-Argon 1800:52:46  +  00:02:31=42,072 
1212 POLMaciej BodnarRUSTinkoff00:52:47  +  00:02:32=42,059 
1313 NOREdvald Boasson HagenZAFDimension Data00:52:49  +  00:02:34=42,032 
1414 NEDStef ClementCHEIAM Cycling00:52:53  +  00:02:38=41,979 
1515 ESPAlejandro ValverdeESPMovistar Team00:53:03  +  00:02:48=41,847 
1616 USATejay Van GarderenUSABMC Racing Team00:53:05  +  00:02:50=41,821 
1717 AUSLuke DurbridgeAUSORICA BikeExchange00:53:16  +  00:03:01=41,677 
1818 ENGAdam YatesAUSORICA BikeExchange00:53:16  +  00:03:01=41,677 
1919 RUSIlnur ZakarinRUSTeam Katusha00:53:22  +  00:03:07=41,599 
2020 COLNairo QuintanaESPMovistar Team00:53:23  +  00:03:08=41,586 
2121 AUSRichie PorteUSABMC Racing Team00:53:23  +  00:03:08=41,586 
2222 CZERoman KreuzigerRUSTinkoff00:53:28  +  00:03:13=41,521 
2323 SUIFabian CancellaraUSATrek - Segafredo00:53:30  +  00:03:15=41,495 
2424 FRAAnthony RouxFRAFDJ00:53:38  +  00:03:23=41,392 
2525 ITAVincenzo NibaliKAZAstana Pro Team00:53:44  +  00:03:29=41,315 
2626 ESPRubén PlazaAUSORICA BikeExchange00:53:50  +  00:03:35=41,238 
2727 KAZAlexey LutsenkoKAZAstana Pro Team00:53:56  +  00:03:41=41,162 
2828 FRARomain SicardFRADirect Energie00:54:03  +  00:03:48=41,073 
2929 FRASylvain ChavanelFRADirect Energie00:54:07  +  00:03:52=41,022 
3030 FRARomain BardetFRAAg2r La Mondiale00:54:07  +  00:03:52=41,022 
3131 FRAJérémy RoyFRAFDJ00:54:21  +  00:04:06=40,846 
3232 BELThomas De GendtBELLotto Soudal00:54:23  +  00:04:08=40,821 
3333 ENGDaniel MartinBELEtixx - Quick Step00:54:25  +  00:04:10=40,796 
3434 FRAAnthony DelaplaceFRAFortuneo - Vital Concept00:54:32  +  00:04:17=40,709 
3535 RSALouis MeintjesITALampre-Merida00:54:37  +  00:04:22=40,647 
3636 FRA Alexis GougeardFRAAg2r La Mondiale00:54:37  +  00:04:22=40,647 
3737 ITAFabio AruKAZAstana Pro Team00:54:40  +  00:04:25=40,610 
3838 UKRAndriy GrivkoKAZAstana Pro Team00:54:44  +  00:04:29=40,560 
3939 COLJarlinson Pantano GomezCHEIAM Cycling00:54:53  +  00:04:38=40,449 
4040 SUISébastien ReichenbachFRAFDJ00:54:57  +  00:04:42=40,400 
4141 BELSep VanmarckeNLDTeam Lotto NL - Jumbo00:54:58  +  00:04:43=40,388 
4242 ESPJoaquim RodriguezRUSTeam Katusha00:55:01  +  00:04:46=40,351 
4343 AUTGeorg PreidlerDEUTeam Giant Alpecin00:55:04  +  00:04:49=40,315 
4444 COLSergio Luis HenaoGBRSky Procycling00:55:07  +  00:04:52=40,278 
4545 NEDWilco KeldermanNLDTeam Lotto NL - Jumbo00:55:12  +  00:04:57=40,217 
4646 FRAWarren BarguilDEUTeam Giant Alpecin00:55:13  +  00:04:58=40,205 
4747 SUIMartin ElmigerCHEIAM Cycling00:55:21  +  00:05:06=40,108 
4848 SLOJan PolancITALampre-Merida00:55:25  +  00:05:10=40,060 
4949 NORVegard BreenFRAFortuneo - Vital Concept00:55:26  +  00:05:11=40,048 
5050 ITADiego RosaKAZAstana Pro Team00:55:38  +  00:05:23=39,904 
5151 ITADamiano CarusoUSABMC Racing Team00:55:38  +  00:05:23=39,904 
5252 SUIReto HollensteinCHEIAM Cycling00:55:41  +  00:05:26=39,868 
5353 SUIMichael AlbasiniAUSORICA BikeExchange00:55:42  +  00:05:27=39,856 
5454 ESPMikel Landa MeanaGBRSky Procycling00:55:45  +  00:05:30=39,821 
5555 FRAPierre-Luc PérichonFRAFortuneo - Vital Concept00:55:46  +  00:05:31=39,809 
5656 GEREmanuel BuchmannDEUBora-Argon 1800:55:47  +  00:05:32=39,797 
5757 URSRamunas NavardauskasUSATeam Cannondale Drapac00:55:52  +  00:05:37=39,737 
5858 NEDTimo RoosenNLDTeam Lotto NL - Jumbo00:55:55  +  00:05:40=39,702 
5959 NEDDylan Van BaarleUSATeam Cannondale Drapac00:55:56  +  00:05:41=39,690 
6060 RSADaryl ImpeyAUSORICA BikeExchange00:55:58  +  00:05:43=39,666 
6161 SUIMichael SchärUSABMC Racing Team00:56:04  +  00:05:49=39,596 
6262 FRANicolas EdetFRACofidis – Solutions Crédits00:56:05  +  00:05:50=39,584 
6363 ITAOscar GattoRUSTinkoff00:56:05  +  00:05:50=39,584 
6464 URSTanel KangertKAZAstana Pro Team00:56:06  +  00:05:51=39,572 
6565 BELOliver NaesenCHEIAM Cycling00:56:07  +  00:05:52=39,560 
6666 FRAThomas VoecklerFRADirect Energie00:56:10  +  00:05:55=39,525 
6767 FRAFlorian VachonFRAFortuneo - Vital Concept00:56:10  +  00:05:55=39,525 
6868 FRAPierre RollandUSATeam Cannondale Drapac00:56:11  +  00:05:56=39,513 
6969 DENMichael ValgrenRUSTinkoff00:56:16  +  00:06:01=39,455 
7070 GERPaul MartensNLDTeam Lotto NL - Jumbo00:56:19  +  00:06:04=39,420 
7171 FRABrice FeilluFRAFortuneo - Vital Concept00:56:21  +  00:06:06=39,397 
7272 ESPImanol ErvitiESPMovistar Team00:56:23  +  00:06:08=39,373 
7373 ESPLuis León SánchezKAZAstana Pro Team00:56:23  +  00:06:08=39,373 
7474 FRAJérôme CousinFRACofidis – Solutions Crédits00:56:28  +  00:06:13=39,315 
7575 BELIljo KeisseBELEtixx - Quick Step00:56:29  +  00:06:14=39,304 
7676 ESPHaimar ZubeldiaUSATrek - Segafredo00:56:30  +  00:06:15=39,292 
7777 PORRui CostaITALampre-Merida00:56:30  +  00:06:15=39,292 
7878 SVKPeter SaganRUSTinkoff00:56:32  +  00:06:17=39,269 
7979 ERIDaniel TeklehaimanotZAFDimension Data00:56:35  +  00:06:20=39,234 
8080 FRATony GallopinBELLotto Soudal00:56:36  +  00:06:21=39,223 
8181 BELGreg Van AvermaetUSABMC Racing Team00:56:37  +  00:06:22=39,211 
8282 FRAArthur VichotFRAFDJ00:56:38  +  00:06:23=39,200 
8383 FRAAlexis VuillermozFRAAg2r La Mondiale00:56:38  +  00:06:23=39,200 
8484 USABrent BookwalterUSABMC Racing Team00:56:47  +  00:06:32=39,096 
8585 ESPLuis Angel MateFRACofidis – Solutions Crédits00:56:47  +  00:06:32=39,096 
8686 ITAPaolo TiralongoKAZAstana Pro Team00:56:48  +  00:06:33=39,085 
8787 ESPÁngel ViciosoRUSTeam Katusha00:56:49  +  00:06:34=39,073 
8888 NZLGregory HendersonBELLotto Soudal00:56:49  +  00:06:34=39,073 
8989 BELJan BakelantsFRAAg2r La Mondiale00:56:49  +  00:06:34=39,073 
9090 FRAFabrice JeandesbozFRADirect Energie00:56:55  +  00:06:40=39,004 
9191 BELJasper StuyvenUSATrek - Segafredo00:56:56  +  00:06:41=38,993 
9292 LUXBen GastauerFRAAg2r La Mondiale00:56:58  +  00:06:43=38,970 
9393 ITADomenico PozzovivoFRAAg2r La Mondiale00:57:02  +  00:06:47=38,925 
9494 ESPMikel NieveGBRSky Procycling00:57:03  +  00:06:48=38,913 
9595 NEDWout PoelsGBRSky Procycling00:57:04  +  00:06:49=38,902 
9696 HRVKristijan DurasekITALampre-Merida00:57:04  +  00:06:49=38,902 
9797 SUISteve MorabitoFRAFDJ00:57:06  +  00:06:51=38,879 
9898 FRAWilliam BonnetFRAFDJ00:57:12  +  00:06:57=38,811 
9999 FRAAdrien PetitFRADirect Energie00:57:15  +  00:07:00=38,777 
100100 BELJürgen RoelandtsBELLotto Soudal00:57:20  +  00:07:05=38,721 
101101 ITAFabio SabatiniBELEtixx - Quick Step00:57:22  +  00:07:07=38,698 
102102 POLBartosz HuzarskiDEUBora-Argon 1800:57:24  +  00:07:09=38,676 
103103 FRASamuel DumoulinFRAAg2r La Mondiale00:57:26  +  00:07:11=38,654 
104104 LUXFränk SchleckUSATrek - Segafredo00:57:26  +  00:07:11=38,654 
105105 ITAMatteo TosattoRUSTinkoff00:57:26  +  00:07:11=38,654 
106106 FRAJulian AlaphilippeBELEtixx - Quick Step00:57:30  +  00:07:15=38,609 
107107 ESPGorka Izaguirre InsaustiESPMovistar Team00:57:30  +  00:07:15=38,609 
108108 CANAntoine DuchesneFRADirect Energie00:57:34  +  00:07:19=38,564 
109109 NEDBert-Jan LindemanNLDTeam Lotto NL - Jumbo00:57:35  +  00:07:20=38,553 
110110 GERAndreas SchillingerDEUBora-Argon 1800:57:35  +  00:07:20=38,553 
111111 USAPeter StetinaUSATrek - Segafredo00:57:36  +  00:07:21=38,542 
112112 FRAMickaël CherelFRAAg2r La Mondiale00:57:37  +  00:07:22=38,531 
113113 GERMarcel SiebergBELLotto Soudal00:57:37  +  00:07:22=38,531 
114114 GERRobert WagnerNLDTeam Lotto NL - Jumbo00:57:40  +  00:07:25=38,497 
115115 ARGEduardo SepulvedaFRAFortuneo - Vital Concept00:57:42  +  00:07:27=38,475 
116116 GERSimon GeschkeDEUTeam Giant Alpecin00:57:42  +  00:07:27=38,475 
117117 SUIJakob FuglsangKAZAstana Pro Team00:57:43  +  00:07:28=38,464 
118118 NORSondre Holst EngerCHEIAM Cycling00:57:45  +  00:07:30=38,442 
119119 AUSMathew HaymanAUSORICA BikeExchange00:57:48  +  00:07:33=38,408 
120120 BLRVasil KiryienkaGBRSky Procycling00:57:48  +  00:07:33=38,408 
121121 POLRafal MajkaRUSTinkoff00:57:48  +  00:07:33=38,408 
122122 ESPMarkel IrizarUSATrek - Segafredo00:57:54  +  00:07:39=38,342 
123123 NEDTom-Jelte SlagterUSATeam Cannondale Drapac00:57:56  +  00:07:41=38,320 
124124 FRAArnold JeannessonFRACofidis – Solutions Crédits00:57:56  +  00:07:41=38,320 
125125 RSAReinardt Janse Van RensburgZAFDimension Data00:58:02  +  00:07:47=38,254 
126126 ERINatnael Teweldemedhin BerhaneZAFDimension Data00:58:03  +  00:07:48=38,243 
127127 COLWinner AnaconaESPMovistar Team00:58:03  +  00:07:48=38,243 
128128 BELJens DebusschereBELLotto Soudal00:58:05  +  00:07:50=38,221 
129129 ESPDaniel MorenoESPMovistar Team00:58:05  +  00:07:50=38,221 
130130 NEDDylan GroenewegenNLDTeam Lotto NL - Jumbo00:58:06  +  00:07:51=38,210 
131131 BELSerge PauwelsZAFDimension Data00:58:07  +  00:07:52=38,199 
132132 ETHTsgabu Gebremaryan GrmayITALampre-Merida00:58:07  +  00:07:52=38,199 
133133 FRAChristophe LaporteFRACofidis – Solutions Crédits00:58:09  +  00:07:54=38,177 
134134 AUSMichael MatthewsAUSORICA BikeExchange00:58:11  +  00:07:56=38,155 
135135 ENGIan StannardGBRSky Procycling00:58:13  +  00:07:58=38,133 
136136 ESPAlberto LosadaRUSTeam Katusha00:58:13  +  00:07:58=38,133 
137137 FRABryan CoquardFRADirect Energie00:58:16  +  00:08:01=38,101 
138138 NEDLaurens ten DamDEUTeam Giant Alpecin00:58:22  +  00:08:07=38,035 
139139 FRACyril GautierFRAAg2r La Mondiale00:58:23  +  00:08:08=38,025 
140140 GERAndré GreipelBELLotto Soudal00:58:26  +  00:08:11=37,992 
141141 ESPDaniel NavarroFRACofidis – Solutions Crédits00:58:29  +  00:08:14=37,960 
142142 GERMarcus BurghardtUSABMC Racing Team00:58:31  +  00:08:16=37,938 
143143 NEDAlbert TimmerDEUTeam Giant Alpecin00:58:33  +  00:08:18=37,916 
144144 GERPaul VossDEUBora-Argon 1800:58:36  +  00:08:21=37,884 
145145 USALawson CraddockUSATeam Cannondale Drapac00:58:38  +  00:08:23=37,862 
146146 NEDRamon SinkeldamDEUTeam Giant Alpecin00:58:41  +  00:08:26=37,830 
147147 ESPJesus HerradaESPMovistar Team00:58:41  +  00:08:26=37,830 
148148 USAAlex HowesUSATeam Cannondale Drapac00:58:46  +  00:08:31=37,777 
149149 NORAlexander KristoffRUSTeam Katusha00:58:46  +  00:08:31=37,777 
150150 GERMarcel KittelBELEtixx - Quick Step00:58:46  +  00:08:31=37,777 
151151 BELMaarten WynantsNLDTeam Lotto NL - Jumbo00:58:47  +  00:08:32=37,766 
152152 GERJohn DegenkolbDEUTeam Giant Alpecin00:58:49  +  00:08:34=37,744 
153153 HRVRobert KiserlovskiRUSTinkoff00:58:51  +  00:08:36=37,723 
154154 WALLuke RoweGBRSky Procycling00:58:51  +  00:08:36=37,723 
155155 SLOLuka PibernikITALampre-Merida00:58:52  +  00:08:37=37,712 
156156 FRAGeoffrey SoupeFRACofidis – Solutions Crédits00:58:52  +  00:08:37=37,712 
157157 FRAAmaël MoinardUSABMC Racing Team00:58:53  +  00:08:38=37,702 
158158 CZEPetr VakocBELEtixx - Quick Step00:58:53  +  00:08:38=37,702 
159159 AUTPatrick KonradDEUBora-Argon 1800:58:54  +  00:08:39=37,691 
160160 BELSam BennettDEUBora-Argon 1800:58:55  +  00:08:40=37,680 
161161 BRAMaximilano RichezeBELEtixx - Quick Step00:58:57  +  00:08:42=37,659 
162162 ITAJacopo GuarnieriRUSTeam Katusha00:58:58  +  00:08:43=37,648 
163163 AUSAdam HansenBELLotto Soudal00:59:05  +  00:08:50=37,574 
164164 DENMatti BreschelUSATeam Cannondale Drapac00:59:07  +  00:08:52=37,553 
165165 IRLChristopher Juul JensenAUSORICA BikeExchange00:59:07  +  00:08:52=37,553 
166166 SUIGregory RastUSATrek - Segafredo00:59:10  +  00:08:55=37,521 
167167 JPNYukiya ArashiroITALampre-Merida00:59:14  +  00:08:59=37,479 
168168 BELJulien VermoteBELEtixx - Quick Step00:59:14  +  00:08:59=37,479 
169169 SUIMathias FrankCHEIAM Cycling00:59:19  +  00:09:04=37,426 
170170 NZLShane ArchboldDEUBora-Argon 1800:59:20  +  00:09:05=37,416 
171171 FRAYohann GèneFRADirect Energie00:59:29  +  00:09:14=37,321 
172172 NZLGeorge BennettNLDTeam Lotto NL - Jumbo00:59:32  +  00:09:17=37,290 
174173 ITADavide CimolaiITALampre-Merida00:59:35  +  00:09:20=37,259 
175174 DENLars BakBELLotto Soudal00:59:43  +  00:09:28=37,176 
176175 SLOKristjan KorenUSATeam Cannondale Drapac00:59:53  +  00:09:38=37,072 
177176 ITACesare BenedettiDEUBora-Argon 1800:59:55  +  00:09:40=37,051 
178177 AUTBernhard EiselZAFDimension Data00:59:59  +  00:09:44=37,010 
179178 ENGDaniel McLayFRAFortuneo - Vital Concept01:00:05  +  00:09:50=36,949 
180179 IOMMark CavendishZAFDimension Data01:00:22  +  00:10:07=36,775 
181180 ITAMatteo BonoITALampre-Merida01:00:23  +  00:10:08=36,765 
182181 FRACyril LemoineFRACofidis – Solutions Crédits01:00:33  +  00:10:18=36,664 
183182 AUSLeigh HowardCHEIAM Cycling01:00:40  +  00:10:25=36,593 
184183 AUTMarco HallerRUSTeam Katusha01:00:52  +  00:10:37=36,473 
185184 SLOBorut BozicFRACofidis – Solutions Crédits01:00:57  +  00:10:42=36,423 
186185 FRAArmindo FonsecaFRAFortuneo - Vital Concept01:01:16  +  00:11:01=36,235 
187186 DENChris Anker SørensenFRAFortuneo - Vital Concept01:01:33  +  00:11:18=36,068 

Withdrawls: 3
 
Rider
Team
Reason
68  BELEdward TheunsUSATrek - SegafredoDid not finish
121  FRAThibaut PinotFRAFDJDid not start
201  AUSSimon GerransAUSORICA BikeExchangeDid not start
Todays birthdays.

1878  Jean Novo
1883  Jules Chabas
1890  Ange Aubry
1893  Roger Marye
1913  Paul Maye
1914  Lucien Vlaemynck
1915  Alphonse Antoine
1932  Rolf Graf
1953  Julio Rubiano
1959  Jos Haex
1959  Gerard Veldscholten
1963  Pablo Moreno
1964  Juan Castillo
1977  Iban Mayo
1994  Fernando Gaviria